NDF44E EVRA-EDDH

Flight info

Callsign NDF44E
Flight time 1h 37m
Altitude 36000
Route VALED4J VALED DCT ADAXA DCT NINTA DCT GIMRU DCT NITLA/N0401F240 T148 MICOS N850 BOGMU BOGMU5A
Aircraft A321/M-SDE3FGHIRWY/LB1

Departure

Time 2026-05-05 19:52
Airport Riga International Airport (EVRA)

Arrival

Time 2026-05-05 21:29
Airport Hamburg Helmut Schmidt Airport (EDDH)
Time Latitude Longitude Altitude Speed Heading
2026-05-05 19:15 56.92187 23.97669 35 ft 0 kts
2026-05-05 19:28 56.92186 23.97669 35 ft 0 kts
2026-05-05 19:42 56.92179 23.97667 34 ft 4 kts
2026-05-05 19:42 56.92158 23.97664 35 ft 4 kts 352°
2026-05-05 19:42 56.92137 23.97680 34 ft 4 kts 301°
2026-05-05 19:42 56.92130 23.97713 35 ft 0 kts 275°
2026-05-05 19:43 56.92130 23.97714 35 ft 0 kts 275°
2026-05-05 19:46 56.92131 23.97690 35 ft 6 kts 275°
2026-05-05 19:46 56.92138 23.97564 35 ft 12 kts 275°
2026-05-05 19:47 56.92108 23.97462 35 ft 10 kts 198°
2026-05-05 19:47 56.92046 23.97449 35 ft 8 kts 184°
2026-05-05 19:47 56.91992 23.97442 35 ft 7 kts 183°
2026-05-05 19:47 56.91939 23.97437 35 ft 8 kts 183°
2026-05-05 19:48 56.91881 23.97431 35 ft 10 kts 183°
2026-05-05 19:48 56.91809 23.97421 34 ft 10 kts 185°
2026-05-05 19:48 56.91731 23.97408 35 ft 12 kts 185°
2026-05-05 19:48 56.91645 23.97394 35 ft 13 kts 185°
2026-05-05 19:49 56.91551 23.97377 35 ft 14 kts 185°
2026-05-05 19:49 56.91489 23.97366 35 ft 13 kts 185°
2026-05-05 19:49 56.91371 23.97341 35 ft 12 kts 196°
2026-05-05 19:49 56.91314 23.97250 35 ft 10 kts 230°
2026-05-05 19:50 56.91273 23.97154 35 ft 9 kts 239°
2026-05-05 19:50 56.91258 23.97035 37 ft 9 kts 276°
2026-05-05 19:50 56.91293 23.96956 39 ft 8 kts 334°
2026-05-05 19:50 56.91340 23.96953 40 ft 6 kts
2026-05-05 19:51 56.91410 23.96964 38 ft 21 kts
2026-05-05 19:51 56.91815 23.97030 37 ft 93 kts
2026-05-05 19:51 56.92640 23.97166 38 ft 145 kts
2026-05-05 19:51 56.93752 23.97372 332 ft 163 kts
2026-05-05 19:52 56.94878 23.97576 1044 ft 163 kts
2026-05-05 19:52 56.96025 23.97784 1688 ft 168 kts
2026-05-05 19:52 56.97243 23.97945 1954 ft 186 kts
2026-05-05 19:52 56.98605 23.98137 2157 ft 208 kts
2026-05-05 19:53 57.00129 23.98366 2368 ft 233 kts
2026-05-05 19:53 57.01814 23.98634 2875 ft 249 kts
2026-05-05 19:53 57.03574 23.98929 3607 ft 257 kts
2026-05-05 19:53 57.05381 23.99075 4344 ft 261 kts 348°
2026-05-05 19:54 57.06994 23.97727 5042 ft 257 kts 313°
2026-05-05 19:54 57.07927 23.95002 5782 ft 253 kts 285°
2026-05-05 19:54 57.08110 23.91811 6559 ft 252 kts 261°
2026-05-05 19:54 57.07740 23.88671 7322 ft 252 kts 256°
2026-05-05 19:55 57.07339 23.85533 8113 ft 253 kts 256°
2026-05-05 19:55 57.06937 23.82366 8896 ft 255 kts 256°
2026-05-05 19:55 57.06534 23.79186 9683 ft 256 kts 256°
2026-05-05 19:55 57.06129 23.75992 10169 ft 267 kts 256°
2026-05-05 19:56 57.05686 23.72521 10315 ft 289 kts 256°
2026-05-05 19:56 57.05207 23.68797 10467 ft 308 kts 256°
2026-05-05 19:56 57.04707 23.64901 10932 ft 316 kts 256°
2026-05-05 19:56 57.04203 23.60959 11564 ft 318 kts 256°
2026-05-05 19:57 57.03692 23.56987 12228 ft 321 kts 256°
2026-05-05 19:57 57.03353 23.54350 12665 ft 322 kts 256°
2026-05-05 19:57 57.02658 23.48958 13538 ft 325 kts 256°
2026-05-05 19:57 57.02135 23.44909 14130 ft 327 kts 256°
2026-05-05 19:58 57.01610 23.40874 14681 ft 329 kts 256°
2026-05-05 19:58 57.01076 23.36775 15251 ft 331 kts 256°
2026-05-05 19:58 57.00536 23.32661 15803 ft 332 kts 256°
2026-05-05 19:58 56.99994 23.28526 16350 ft 334 kts 256°
2026-05-05 19:59 56.99448 23.24360 16892 ft 336 kts 256°
2026-05-05 19:59 56.98898 23.20181 17422 ft 338 kts 256°
2026-05-05 19:59 56.98341 23.15982 17929 ft 340 kts 255°
2026-05-05 19:59 56.97776 23.11752 18399 ft 342 kts 255°
2026-05-05 20:00 56.97206 23.07501 18811 ft 343 kts 255°
2026-05-05 20:00 56.96638 23.03248 19215 ft 345 kts 255°
2026-05-05 20:00 56.96064 22.98957 19617 ft 347 kts 255°
2026-05-05 20:00 56.95490 22.94655 20021 ft 348 kts 255°
2026-05-05 20:01 56.94910 22.90323 20414 ft 350 kts 255°
2026-05-05 20:01 56.94325 22.85973 20816 ft 352 kts 255°
2026-05-05 20:01 56.93742 22.81676 21208 ft 354 kts 255°
2026-05-05 20:01 56.93147 22.77307 21607 ft 355 kts 255°
2026-05-05 20:02 56.92546 22.72902 22018 ft 357 kts 255°
2026-05-05 20:02 56.91933 22.68426 22427 ft 360 kts 255°
2026-05-05 20:02 56.91332 22.64027 22829 ft 362 kts 255°
2026-05-05 20:02 56.90719 22.59553 23237 ft 364 kts 255°
2026-05-05 20:03 56.90101 22.55046 23611 ft 366 kts 255°
2026-05-05 20:03 56.89476 22.50514 23936 ft 368 kts 255°
2026-05-05 20:03 56.88842 22.45944 24270 ft 370 kts 255°
2026-05-05 20:03 56.88204 22.41371 24609 ft 372 kts 255°
2026-05-05 20:04 56.87559 22.36772 24923 ft 374 kts 255°
2026-05-05 20:04 56.86913 22.32150 25247 ft 376 kts 255°
2026-05-05 20:04 56.86267 22.27518 25555 ft 378 kts 255°
2026-05-05 20:04 56.85614 22.22848 25849 ft 380 kts 255°
2026-05-05 20:05 56.84954 22.18154 26175 ft 382 kts 255°
2026-05-05 20:05 56.84287 22.13440 26490 ft 384 kts 255°
2026-05-05 20:05 56.83613 22.08718 26789 ft 386 kts 255°
2026-05-05 20:05 56.82931 22.03952 27090 ft 388 kts 255°
2026-05-05 20:06 56.82254 21.99209 27372 ft 391 kts 255°
2026-05-05 20:06 56.81569 21.94405 27657 ft 393 kts 255°
2026-05-05 20:06 56.80875 21.89559 27946 ft 395 kts 255°
2026-05-05 20:06 56.80178 21.84706 28228 ft 397 kts 255°
2026-05-05 20:07 56.79710 21.81462 28409 ft 398 kts 255°
2026-05-05 20:07 56.78999 21.76561 28671 ft 400 kts 255°
2026-05-05 20:07 56.78285 21.71652 28916 ft 402 kts 255°
2026-05-05 20:07 56.77564 21.66708 29150 ft 404 kts 255°
2026-05-05 20:08 56.76837 21.61741 29371 ft 406 kts 255°
2026-05-05 20:08 56.76106 21.56755 29573 ft 407 kts 255°
2026-05-05 20:08 56.75375 21.51775 29815 ft 408 kts 255°
2026-05-05 20:08 56.74640 21.46782 30103 ft 407 kts 255°
2026-05-05 20:09 56.73904 21.41799 30349 ft 407 kts 255°
2026-05-05 20:09 56.73168 21.36838 30596 ft 407 kts 255°
2026-05-05 20:09 56.72426 21.31862 30848 ft 407 kts 255°
2026-05-05 20:09 56.71684 21.26891 31085 ft 406 kts 255°
2026-05-05 20:10 56.70939 21.21941 31328 ft 406 kts 255°
2026-05-05 20:10 56.70187 21.16957 31574 ft 406 kts 255°
2026-05-05 20:10 56.69440 21.11994 31828 ft 406 kts 255°
2026-05-05 20:10 56.68693 21.07034 32074 ft 406 kts 255°
2026-05-05 20:11 56.67944 21.02075 32324 ft 406 kts 255°
2026-05-05 20:11 56.67203 20.97190 32575 ft 406 kts 255°
2026-05-05 20:11 56.66447 20.92246 32829 ft 405 kts 255°
2026-05-05 20:11 56.65690 20.87308 33080 ft 405 kts 255°
2026-05-05 20:12 56.64932 20.82376 33332 ft 405 kts 255°
2026-05-05 20:12 56.64175 20.77466 33583 ft 404 kts 255°
2026-05-05 20:12 56.63415 20.72543 33825 ft 404 kts 255°
2026-05-05 20:12 56.62652 20.67628 34042 ft 404 kts 255°
2026-05-05 20:13 56.61887 20.62714 34238 ft 404 kts 255°
2026-05-05 20:13 56.61121 20.57802 34421 ft 404 kts 255°
2026-05-05 20:13 56.60358 20.52908 34598 ft 404 kts 255°
2026-05-05 20:13 56.59592 20.47998 34777 ft 404 kts 255°
2026-05-05 20:14 56.58826 20.43087 34950 ft 404 kts 255°
2026-05-05 20:14 56.58057 20.38176 35147 ft 404 kts 255°
2026-05-05 20:14 56.57287 20.33288 35308 ft 404 kts 254°
2026-05-05 20:14 56.56509 20.28387 35482 ft 404 kts 254°
2026-05-05 20:15 56.55729 20.23488 35652 ft 404 kts 254°
2026-05-05 20:15 56.54949 20.18610 35823 ft 404 kts 254°
2026-05-05 20:15 56.54163 20.13717 35925 ft 403 kts 254°
2026-05-05 20:16 56.52604 20.04023 35938 ft 402 kts 254°
2026-05-05 20:16 56.51039 19.94310 35939 ft 401 kts 254°
2026-05-05 20:17 56.49471 19.84627 35942 ft 401 kts 254°
2026-05-05 20:17 56.47888 19.74935 35941 ft 401 kts 254°
2026-05-05 20:18 56.46297 19.65271 35940 ft 401 kts 254°
2026-05-05 20:18 56.44698 19.55591 35941 ft 401 kts 253°
2026-05-05 20:19 56.43096 19.45920 35947 ft 401 kts 253°
2026-05-05 20:19 56.41494 19.36319 35950 ft 401 kts 253°
2026-05-05 20:20 56.39864 19.26652 35945 ft 401 kts 253°
2026-05-05 20:20 56.38239 19.17023 35948 ft 401 kts 253°
2026-05-05 20:21 56.36604 19.07374 35950 ft 401 kts 253°
2026-05-05 20:21 56.34961 18.97729 35950 ft 401 kts 253°
2026-05-05 20:22 56.33323 18.88190 35946 ft 401 kts 253°
2026-05-05 20:22 56.31666 18.78582 35946 ft 401 kts 253°
2026-05-05 20:23 56.30006 18.68999 35951 ft 401 kts 253°
2026-05-05 20:23 56.28337 18.59411 35947 ft 401 kts 253°
2026-05-05 20:24 56.26652 18.49821 35947 ft 401 kts 253°
2026-05-05 20:24 56.24983 18.40319 35942 ft 401 kts 253°
2026-05-05 20:25 56.23279 18.30702 35945 ft 400 kts 252°
2026-05-05 20:25 56.21488 18.21299 35942 ft 401 kts 251°
2026-05-05 20:26 56.19555 18.11899 35942 ft 401 kts 250°
2026-05-05 20:26 56.17606 18.02533 35940 ft 401 kts 250°
2026-05-05 20:27 56.15671 17.93149 35937 ft 401 kts 250°
2026-05-05 20:27 56.13756 17.83807 35939 ft 401 kts 250°
2026-05-05 20:28 56.11810 17.74381 35935 ft 401 kts 250°
2026-05-05 20:28 56.09875 17.65081 35932 ft 401 kts 250°
2026-05-05 20:29 56.07922 17.55744 35937 ft 400 kts 250°
2026-05-05 20:29 56.05963 17.46401 35934 ft 400 kts 250°
2026-05-05 20:30 56.03998 17.37078 35935 ft 400 kts 250°
2026-05-05 20:30 56.02027 17.27769 35933 ft 400 kts 250°
2026-05-05 20:31 56.00046 17.18451 35932 ft 401 kts 250°
2026-05-05 20:31 55.98057 17.09146 35935 ft 401 kts 250°
2026-05-05 20:32 55.96067 16.99843 35937 ft 401 kts 250°
2026-05-05 20:32 55.94078 16.90619 35935 ft 400 kts 250°
2026-05-05 20:33 55.92050 16.81284 35934 ft 400 kts 249°
2026-05-05 20:33 55.90036 16.72047 35932 ft 400 kts 249°
2026-05-05 20:34 55.88025 16.62840 35932 ft 400 kts 249°
2026-05-05 20:34 55.85997 16.53618 35930 ft 400 kts 249°
2026-05-05 20:35 55.83964 16.44387 35931 ft 400 kts 249°
2026-05-05 20:35 55.81924 16.35172 35935 ft 400 kts 249°
2026-05-05 20:36 55.79870 16.25959 35937 ft 399 kts 249°
2026-05-05 20:36 55.77820 16.16791 35934 ft 399 kts 249°
2026-05-05 20:37 55.75776 16.07685 35936 ft 399 kts 249°
2026-05-05 20:37 55.73715 15.98545 35938 ft 399 kts 249°
2026-05-05 20:38 55.71649 15.89430 35941 ft 398 kts 249°
2026-05-05 20:38 55.69581 15.80314 35941 ft 398 kts 249°
2026-05-05 20:39 55.67508 15.71223 35945 ft 398 kts 249°
2026-05-05 20:39 55.65421 15.62117 35947 ft 398 kts 249°
2026-05-05 20:40 55.63331 15.53064 35946 ft 397 kts 249°
2026-05-05 20:40 55.61237 15.44014 35945 ft 397 kts 249°
2026-05-05 20:41 55.59139 15.34981 35943 ft 396 kts 249°
2026-05-05 20:41 55.57036 15.25970 35942 ft 396 kts 249°
2026-05-05 20:42 55.54941 15.17037 35938 ft 395 kts 248°
2026-05-05 20:42 55.52834 15.08077 35950 ft 395 kts 248°
2026-05-05 20:43 55.50715 14.99103 35951 ft 395 kts 248°
2026-05-05 20:43 55.48598 14.90171 35942 ft 394 kts 248°
2026-05-05 20:44 55.46472 14.81257 35942 ft 394 kts 248°
2026-05-05 20:44 55.44360 14.72434 35942 ft 393 kts 248°
2026-05-05 20:45 55.41167 14.59130 35934 ft 392 kts 248°
2026-05-05 20:45 55.39033 14.50288 35938 ft 392 kts 248°
2026-05-05 20:46 55.36893 14.41465 35933 ft 392 kts 248°
2026-05-05 20:46 55.35105 14.34145 35932 ft 392 kts 248°
2026-05-05 20:47 55.32956 14.25356 35933 ft 391 kts 248°
2026-05-05 20:47 55.30807 14.16583 35934 ft 391 kts 248°
2026-05-05 20:48 55.28646 14.07811 35934 ft 391 kts 247°
2026-05-05 20:48 55.26485 13.99063 35933 ft 391 kts 247°
2026-05-05 20:49 55.24316 13.90325 35932 ft 391 kts 247°
2026-05-05 20:49 55.22136 13.81606 35933 ft 391 kts 247°
2026-05-05 20:50 55.19956 13.72881 35935 ft 391 kts 247°
2026-05-05 20:50 55.17769 13.64188 35939 ft 390 kts 247°
2026-05-05 20:51 55.15576 13.55515 35936 ft 390 kts 247°
2026-05-05 20:51 55.13385 13.46852 35935 ft 390 kts 247°
2026-05-05 20:52 55.11191 13.38198 35939 ft 390 kts 246°
2026-05-05 20:52 55.08981 13.29543 35940 ft 390 kts 246°
2026-05-05 20:53 55.06766 13.20915 35940 ft 390 kts 246°
2026-05-05 20:53 55.04547 13.12280 35945 ft 390 kts 246°
2026-05-05 20:54 55.02321 13.03658 35943 ft 389 kts 246°
2026-05-05 20:54 55.00092 12.95072 35941 ft 389 kts 246°
2026-05-05 20:55 54.97858 12.86484 35941 ft 389 kts 246°
2026-05-05 20:55 54.95622 12.77925 35940 ft 388 kts 246°
2026-05-05 20:56 54.93394 12.69425 35941 ft 388 kts 246°
2026-05-05 20:56 54.91146 12.60876 35941 ft 388 kts 245°
2026-05-05 20:57 54.88893 12.52362 35941 ft 388 kts 245°
2026-05-05 20:57 54.86635 12.43861 35939 ft 388 kts 245°
2026-05-05 20:58 54.84369 12.35358 35934 ft 388 kts 245°
2026-05-05 20:58 54.82105 12.26878 35933 ft 387 kts 245°
2026-05-05 20:59 54.79835 12.18395 35932 ft 387 kts 245°
2026-05-05 20:59 54.77555 12.09934 35757 ft 388 kts 245°
2026-05-05 21:00 54.76408 12.05687 35495 ft 387 kts 245°
2026-05-05 21:00 54.75267 12.01454 35235 ft 386 kts 245°
2026-05-05 21:00 54.74131 11.97247 34995 ft 384 kts 245°
2026-05-05 21:00 54.72997 11.93056 34742 ft 383 kts 244°
2026-05-05 21:01 54.71868 11.88898 34504 ft 382 kts 244°
2026-05-05 21:01 54.70735 11.84742 34257 ft 381 kts 244°
2026-05-05 21:01 54.69604 11.80609 34024 ft 380 kts 244°
2026-05-05 21:01 54.68488 11.76535 33760 ft 379 kts 244°
2026-05-05 21:02 54.67363 11.72427 33475 ft 379 kts 244°
2026-05-05 21:02 54.66229 11.68297 33198 ft 381 kts 244°
2026-05-05 21:02 54.65091 11.64158 32450 ft 382 kts 244°
2026-05-05 21:02 54.63948 11.60014 31673 ft 382 kts 244°
2026-05-05 21:03 54.62800 11.55856 30900 ft 383 kts 244°
2026-05-05 21:03 54.61654 11.51716 30383 ft 379 kts 244°
2026-05-05 21:03 54.60524 11.47638 29878 ft 374 kts 244°
2026-05-05 21:03 54.59411 11.43620 29339 ft 368 kts 244°
2026-05-05 21:04 54.58318 11.39684 28860 ft 362 kts 244°
2026-05-05 21:04 54.57236 11.35796 28385 ft 358 kts 244°
2026-05-05 21:04 54.56159 11.31933 27899 ft 356 kts 244°
2026-05-05 21:04 54.55024 11.28131 27376 ft 354 kts 242°
2026-05-05 21:05 54.53835 11.24489 26856 ft 352 kts 240°
2026-05-05 21:05 54.52601 11.20871 26332 ft 350 kts 239°
2026-05-05 21:05 54.51173 11.17467 25814 ft 349 kts 230°
2026-05-05 21:05 54.49412 11.14590 25301 ft 350 kts 220°
2026-05-05 21:06 54.47382 11.12281 24781 ft 352 kts 211°
2026-05-05 21:06 54.45132 11.10552 24269 ft 353 kts 205°
2026-05-05 21:06 54.42862 11.08979 23773 ft 352 kts 205°
2026-05-05 21:06 54.40593 11.07411 23249 ft 350 kts 205°
2026-05-05 21:07 54.38332 11.05857 22749 ft 349 kts 205°
2026-05-05 21:07 54.36079 11.04314 22308 ft 348 kts 205°
2026-05-05 21:07 54.33843 11.02779 21860 ft 346 kts 206°
2026-05-05 21:07 54.31748 11.00905 21445 ft 341 kts 216°
2026-05-05 21:08 54.29878 10.98436 21042 ft 338 kts 225°
2026-05-05 21:08 54.28300 10.95496 20626 ft 335 kts 233°
2026-05-05 21:08 54.26883 10.92331 20210 ft 334 kts 233°
2026-05-05 21:08 54.25463 10.89187 19796 ft 333 kts 233°
2026-05-05 21:09 54.24048 10.86057 19347 ft 332 kts 233°
2026-05-05 21:09 54.22637 10.82941 18935 ft 330 kts 233°
2026-05-05 21:09 54.21226 10.79830 18500 ft 329 kts 233°
2026-05-05 21:09 54.19821 10.76734 18046 ft 328 kts 233°
2026-05-05 21:10 54.18428 10.73662 17577 ft 326 kts 233°
2026-05-05 21:10 54.17043 10.70608 17134 ft 325 kts 233°
2026-05-05 21:10 54.15663 10.67574 16688 ft 323 kts 233°
2026-05-05 21:10 54.14283 10.64548 16250 ft 322 kts 233°
2026-05-05 21:11 54.12908 10.61541 15803 ft 320 kts 233°
2026-05-05 21:11 54.11541 10.58551 15367 ft 319 kts 233°
2026-05-05 21:11 54.10197 10.55616 14956 ft 317 kts 233°
2026-05-05 21:11 54.08822 10.52614 14518 ft 316 kts 233°
2026-05-05 21:12 54.07493 10.49709 14085 ft 315 kts 233°
2026-05-05 21:12 54.06147 10.46761 13641 ft 313 kts 233°
2026-05-05 21:12 54.04815 10.43848 13166 ft 312 kts 233°
2026-05-05 21:12 54.03486 10.40958 12722 ft 310 kts 233°
2026-05-05 21:13 54.02155 10.38070 12264 ft 308 kts 233°
2026-05-05 21:13 54.00833 10.35214 11820 ft 306 kts 231°
2026-05-05 21:13 53.99283 10.32746 11369 ft 306 kts 216°
2026-05-05 21:13 53.97409 10.31058 10902 ft 306 kts 201°
2026-05-05 21:14 53.95324 10.30272 10439 ft 307 kts 185°
2026-05-05 21:14 53.93228 10.30444 10284 ft 297 kts 172°
2026-05-05 21:14 53.91226 10.31112 10021 ft 290 kts 171°
2026-05-05 21:14 53.89263 10.31763 9744 ft 286 kts 171°
2026-05-05 21:15 53.87297 10.32408 9609 ft 288 kts 171°
2026-05-05 21:15 53.85327 10.33055 9464 ft 288 kts 171°
2026-05-05 21:15 53.83365 10.33701 9355 ft 287 kts 171°
2026-05-05 21:15 53.81402 10.34344 9197 ft 287 kts 171°
2026-05-05 21:16 53.79448 10.34984 8970 ft 285 kts 171°
2026-05-05 21:16 53.77501 10.35623 8743 ft 284 kts 171°
2026-05-05 21:16 53.75570 10.36257 8594 ft 283 kts 170°
2026-05-05 21:16 53.73634 10.36831 8473 ft 282 kts 177°
2026-05-05 21:17 53.71708 10.36458 8344 ft 278 kts 200°
2026-05-05 21:17 53.70036 10.34876 8169 ft 276 kts 222°
2026-05-05 21:17 53.68764 10.32460 7973 ft 275 kts 231°
2026-05-05 21:17 53.67575 10.29986 7736 ft 275 kts 231°
2026-05-05 21:18 53.66361 10.27448 7480 ft 274 kts 231°
2026-05-05 21:18 53.65180 10.24969 7235 ft 274 kts 231°
2026-05-05 21:18 53.63988 10.22455 6987 ft 274 kts 231°
2026-05-05 21:18 53.62797 10.19934 6740 ft 274 kts 231°
2026-05-05 21:19 53.61606 10.17408 6497 ft 274 kts 231°
2026-05-05 21:19 53.60423 10.14890 6253 ft 274 kts 231°
2026-05-05 21:19 53.59239 10.12365 5998 ft 274 kts 231°
2026-05-05 21:19 53.58060 10.09845 5733 ft 274 kts 231°
2026-05-05 21:20 53.56883 10.07324 5473 ft 274 kts 231°
2026-05-05 21:20 53.55707 10.04795 5212 ft 274 kts 231°
2026-05-05 21:20 53.54540 10.02280 4975 ft 273 kts 231°
2026-05-05 21:20 53.53370 9.99754 4723 ft 273 kts 231°
2026-05-05 21:21 53.52204 9.97234 4455 ft 272 kts 231°
2026-05-05 21:21 53.51046 9.94729 4194 ft 272 kts 231°
2026-05-05 21:21 53.49886 9.92215 3939 ft 272 kts 231°
2026-05-05 21:21 53.48724 9.89685 3675 ft 272 kts 231°
2026-05-05 21:22 53.47570 9.87155 3422 ft 272 kts 231°
2026-05-05 21:22 53.46417 9.84623 3168 ft 273 kts 231°
2026-05-05 21:22 53.45297 9.82055 3009 ft 272 kts 239°
2026-05-05 21:22 53.44808 9.79183 2992 ft 242 kts 272°
2026-05-05 21:23 53.45125 9.76585 3001 ft 221 kts 298°
2026-05-05 21:23 53.45968 9.74617 3027 ft 203 kts 322°
2026-05-05 21:23 53.47123 9.73414 3013 ft 191 kts 344°
2026-05-05 21:23 53.48402 9.73011 3005 ft 184 kts
2026-05-05 21:24 53.49640 9.73339 3010 ft 179 kts 23°
2026-05-05 21:24 53.50726 9.74300 3008 ft 175 kts 40°
2026-05-05 21:24 53.51568 9.75742 3008 ft 173 kts 52°
2026-05-05 21:24 53.52345 9.77298 2970 ft 174 kts 52°
2026-05-05 21:25 53.52859 9.78328 2877 ft 173 kts 52°
2026-05-05 21:25 53.53628 9.79870 2675 ft 171 kts 52°
2026-05-05 21:25 53.54388 9.81394 2450 ft 169 kts 52°
2026-05-05 21:25 53.55114 9.82851 2230 ft 157 kts 53°
2026-05-05 21:26 53.55798 9.84225 2043 ft 149 kts 52°
2026-05-05 21:26 53.56436 9.85506 1826 ft 135 kts 52°
2026-05-05 21:26 53.57023 9.86686 1648 ft 129 kts 52°
2026-05-05 21:26 53.57597 9.87842 1470 ft 127 kts 52°
2026-05-05 21:27 53.58164 9.88985 1301 ft 127 kts 52°
2026-05-05 21:27 53.58727 9.90124 1114 ft 128 kts 52°
2026-05-05 21:27 53.59304 9.91282 903 ft 130 kts 52°
2026-05-05 21:27 53.59886 9.92469 732 ft 132 kts 50°
2026-05-05 21:28 53.60485 9.93668 561 ft 134 kts 50°
2026-05-05 21:28 53.61084 9.94875 371 ft 134 kts 50°
2026-05-05 21:28 53.61679 9.96079 204 ft 133 kts 51°
2026-05-05 21:28 53.62269 9.97281 57 ft 130 kts 49°
2026-05-05 21:29 53.62783 9.98308 53 ft 89 kts 50°
2026-05-05 21:29 53.63067 9.98883 51 ft 43 kts 50°
2026-05-05 21:29 53.63245 9.99244 54 ft 36 kts 50°
2026-05-05 21:29 53.63287 9.99525 51 ft 19 kts 98°
2026-05-05 21:30 53.63274 9.99710 51 ft 14 kts 82°
2026-05-05 21:30 53.63320 9.99847 51 ft 14 kts 49°
2026-05-05 21:30 53.63381 9.99970 51 ft 14 kts 51°
2026-05-05 21:30 53.63434 10.00097 51 ft 11 kts 73°
2026-05-05 21:31 53.63411 10.00215 50 ft 10 kts 106°
2026-05-05 21:31 53.63411 10.00307 51 ft 4 kts 86°
2026-05-05 21:31 53.63412 10.00331 51 ft 0 kts 86°